Vorticity
6 7 8 7 6 6 6 6 6 6 7 6 5 7 8 7 8 7 5 6 6 6 7 7 7 7 7 8 8 8 8 6 7 6 7 5 6 6 6 7 7 7 6 6
7 6 7 7 7 6 6 6 7 6 5 5 7 8 8 7 6 6 6 4 6 7 6 6 6 6 6 7 7 7 6 6 7 7 7 6 7 9 7 6 7 8 6 6
6 6 7 7 7 6 6 6 4 5 6 8 7 8 7 7 7 6 6 6 5 5 4 7 6 4 5 6 7 7 6 5 5 7 8 7 6 8 7 7 6 6 6 5
6 8 7 8 7 6 3 4 7 9 9 9 5 7 5 6 7 6 7 4 5 3 5 4 4 4 6 5 7 8 8 7 7 7 8 8 8 8 7 6 8 8 7 7
10 9 7 6 8 6 10 9 10 7 9 5 7 7 6 6 7 7 7 6 5 4 5 5 6 6 6 6 5 7 10 9 10 11 11 8 8 9 6 5 6 5 6 7
9 8 6 9 9 10 9 8 6 5 5 8 7 5 5 6 6 5 7 6 5 4 5 6 6 5 6 5 4 6 10 9 10 10 9 9 9 8 8 8 6 6 4 4
7 7 8 8 9 8 7 5 7 5 4 6 7 8 9 4 2 6 5 5 3 5 5 4 5 5 4 3 5 3 5 11 9 9 12 10 9 7 9 10 10 8 7 6
10 9 7 8 9 8 5 4 5 4 4 6 6 5 2 4 5 6 5 3 6 6 3 5 5 4 3 3 4 3 4 4 10 10 11 13 11 8 5 5 7 8 7 7
9 9 5 8 6 5 7 5 4 5 5 3 5 2 2 3 7 6 6 6 6 4 3 4 4 3 3 3 3 4 4 2 3 5 9 13 14 14 11 8 4 5 8 7
10 6 7 6 5 6 3 5 4 5 5 3 2 1 3 4 4 6 6 6 4 3 3 4 4 2 3 3 2 3 5 4 1 2 8 9 7 10 9 7 6 8 8 7
10 8 6 7 7 7 6 4 3 5 6 5 4 1 2 3 6 7 6 7 5 5 4 4 4 2 2 2 2 3 4 6 1 -4 -0 13 14 9 8 7 6 6 5 6
7 7 5 7 5 7 6 5 5 5 6 7 5 4 2 2 5 6 6 6 8 5 5 4 5 3 1 1 1 3 3 2 7 -5 -1 -0 10 22 12 7 7 7 8 7
5 8 6 5 6 5 7 6 6 8 8 3 4 4 4 3 6 8 6 6 5 7 6 4 3 3 3 2 1 1 4 4 1 5 0 3 4 21 24 10 7 6 9 8
6 3 5 5 6 5 5 10 7 6 7 8 5 2 1 2 4 6 7 7 5 7 5 5 3 2 3 2 1 2 4 2 3 3 1 2 2 18 21 11 6 7 9 7
5 6 4 4 8 7 6 8 7 7 6 3 5 2 3 4 5 3 4 6 8 9 9 2 5 2 4 3 1 2 3 3 3 3 -0 4 7 16 16 10 9 9 9 7
5 6 6 7 8 5 5 5 4 5 4 5 9 4 4 2 3 4 5 6 7 6 8 6 6 4 4 4 3 2 3 3 4 1 4 4 6 17 14 11 12 13 10 8
5 4 4 5 6 4 2 4 5 5 4 6 3 10 -2 4 5 2 4 5 6 7 8 6 6 4 4 4 4 3 4 4 2 2 2 8 5 10 17 13 16 11 11 8
5 6 5 4 6 3 6 7 4 5 4 3 5 7 4 1 1 5 7 7 7 6 8 8 8 4 4 4 4 4 3 5 2 -2 0 4 10 14 22 11 13 11 10 11
3 3 5 6 6 4 7 8 7 6 5 7 7 9 5 3 3 6 9 8 8 10 12 11 6 5 5 4 4 3 3 2 -1 -2 -0 -2 6 19 16 8 11 13 7 14
5 5 1 4 2 4 8 7 6 10 5 18 8 8 9 1 1 10 3 4 7 7 6 6 7 5 7 4 4 4 6 0 1 -2 -1 -0 10 17 14 14 15 6 13 12
5 4 2 6 3 5 7 9 7 3 7 1 6 6 5 5 6 3 7 8 8 8 9 6 6 7 4 4 4 5 4 0 -0 1 -4 -3 24 15 14 10 13 11 14 10
4 4 5 5 4 5 5 7 9 6 11 7 5 4 5 5 6 8 9 8 8 8 7 8 8 5 7 4 4 6 2 2 -1 -0 -2 -1 20 13 14 8 15 12 10 7
5 5 7 3 3 6 5 5 3 4 4 4 6 7 8 7 4 5 10 9 8 7 7 6 7 8 4 3 6 3 3 1 -0 4 -5 3 20 11 11 9 17 9 5 12
3 6 3 3 4 4 4 3 3 5 6 6 5 4 5 6 6 4 6 7 7 9 9 8 6 4 4 6 3 5 2 6 -1 -3 -1 12 17 14 11 11 11 9 7 13
3 3 2 7 5 2 3 5 6 9 7 6 7 6 5 4 4 4 6 9 8 9 6 5 4 5 4 4 3 3 6 3 5 1 1 17 16 10 9 12 10 5 3 4
2 6 1 4 7 6 2 3 5 2 2 3 2 5 3 4 8 11 11 9 9 5 6 7 7 5 4 5 4 4 -8 12 1 5 14 18 12 9 12 10 8 9 7 8
Height
5901 5903 5905 5906 5908 5909 5911 5913 5915 5916 5917 5919 5921 5923 5925 5926 5927 5927 5928 5928 5929 5929 5929 5929 5928 5927 5926 5925 5924 5922 5920 5917 5914 5912 5909 5906 5903 5899 5897 5893 5890 5887 5884 5881
5901 5902 5905 5906 5908 5909 5911 5913 5915 5917 5918 5920 5921 5923 5924 5925 5926 5927 5928 5929 5929 5929 5929 5929 5929 5928 5927 5926 5924 5922 5919 5916 5913 5910 5907 5904 5901 5899 5896 5892 5889 5886 5882 5878
5899 5902 5904 5905 5907 5909 5911 5913 5915 5917 5918 5920 5921 5923 5924 5925 5926 5927 5928 5929 5929 5930 5930 5929 5929 5928 5927 5925 5923 5921 5918 5915 5912 5909 5906 5903 5899 5896 5893 5890 5886 5883 5879 5874
5899 5901 5902 5904 5906 5909 5910 5913 5914 5916 5918 5920 5922 5924 5924 5925 5926 5927 5928 5928 5929 5929 5929 5929 5928 5927 5926 5924 5922 5919 5916 5913 5910 5907 5904 5900 5897 5893 5890 5887 5883 5879 5875 5871
5898 5899 5901 5903 5906 5908 5911 5912 5914 5916 5917 5919 5921 5923 5924 5924 5925 5926 5927 5928 5928 5928 5928 5928 5927 5926 5924 5922 5920 5917 5914 5911 5907 5904 5900 5897 5894 5890 5887 5883 5879 5875 5870 5866
5895 5897 5900 5902 5904 5907 5909 5911 5913 5915 5917 5918 5920 5922 5922 5923 5925 5925 5926 5926 5927 5927 5927 5926 5925 5924 5922 5920 5918 5915 5912 5908 5904 5901 5897 5894 5891 5887 5882 5878 5874 5870 5865 5861
5892 5895 5898 5901 5903 5906 5908 5910 5912 5915 5916 5918 5918 5920 5921 5922 5924 5924 5925 5925 5925 5926 5925 5925 5923 5922 5920 5918 5915 5913 5910 5906 5902 5898 5895 5891 5887 5883 5879 5874 5870 5865 5861 5856
5891 5895 5896 5899 5902 5904 5906 5908 5910 5913 5914 5916 5916 5918 5921 5921 5922 5922 5923 5923 5923 5923 5923 5921 5920 5919 5918 5915 5912 5909 5906 5903 5899 5895 5891 5887 5883 5879 5875 5870 5866 5861 5856 5850
5889 5892 5895 5897 5900 5903 5905 5907 5909 5911 5912 5914 5915 5917 5917 5918 5919 5919 5919 5920 5920 5920 5918 5917 5917 5916 5914 5912 5909 5906 5902 5899 5896 5892 5887 5883 5879 5875 5870 5865 5860 5856 5850 5844
5886 5889 5892 5894 5897 5900 5902 5905 5907 5908 5910 5911 5913 5914 5915 5915 5916 5916 5916 5917 5916 5915 5914 5914 5913 5912 5911 5909 5906 5903 5899 5896 5892 5888 5883 5879 5874 5869 5864 5858 5853 5848 5842 5837
5883 5886 5890 5892 5895 5896 5899 5901 5903 5905 5907 5908 5910 5912 5911 5912 5913 5913 5913 5913 5913 5912 5911 5910 5910 5908 5907 5905 5902 5899 5895 5892 5888 5883 5879 5873 5868 5862 5856 5850 5845 5839 5833 5828
5878 5879 5883 5886 5889 5891 5894 5897 5899 5901 5904 5904 5906 5908 5907 5908 5909 5909 5910 5909 5908 5908 5907 5907 5905 5903 5901 5899 5897 5894 5891 5887 5883 5878 5873 5868 5862 5855 5848 5842 5837 5832 5826 5820
5872 5874 5878 5881 5884 5887 5890 5893 5894 5895 5897 5899 5900 5904 5903 5904 5904 5905 5904 5903 5903 5903 5902 5901 5899 5898 5896 5894 5891 5888 5885 5881 5876 5871 5866 5860 5854 5846 5839 5834 5829 5823 5818 5812
5862 5866 5872 5876 5878 5880 5883 5885 5886 5887 5890 5894 5897 5898 5898 5898 5898 5899 5898 5898 5896 5896 5895 5894 5893 5892 5890 5887 5884 5881 5877 5873 5869 5864 5858 5852 5845 5838 5832 5826 5821 5814 5808 5802
5855 5861 5864 5867 5870 5872 5875 5877 5878 5880 5885 5884 5891 5891 5891 5891 5891 5892 5892 5892 5890 5889 5888 5888 5886 5885 5883 5880 5877 5873 5869 5865 5861 5856 5850 5844 5837 5829 5823 5817 5811 5805 5798 5792
5845 5850 5854 5858 5860 5862 5863 5867 5870 5872 5876 5880 5883 5888 5883 5882 5884 5884 5885 5885 5884 5882 5881 5880 5879 5876 5875 5873 5869 5865 5861 5857 5854 5849 5843 5835 5829 5821 5814 5808 5801 5794 5788 5782
5834 5839 5843 5846 5848 5848 5848 5861 5863 5866 5869 5873 5873 5883 5876 5875 5875 5874 5877 5877 5876 5874 5872 5872 5869 5867 5866 5864 5861 5857 5852 5849 5845 5840 5834 5826 5819 5812 5804 5798 5791 5784 5777 5771
5823 5828 5831 5834 5838 5832 5845 5855 5854 5857 5862 5863 5867 5872 5871 5868 5866 5866 5869 5868 5868 5864 5863 5862 5861 5858 5856 5854 5851 5847 5842 5839 5834 5829 5823 5815 5808 5801 5793 5786 5780 5773 5766 5759
5811 5815 5818 5819 5825 5830 5833 5842 5851 5850 5854 5855 5859 5863 5861 5858 5855 5858 5861 5857 5856 5856 5854 5853 5851 5850 5847 5844 5840 5836 5832 5828 5823 5818 5811 5803 5796 5789 5782 5776 5768 5760 5753 5746
5798 5801 5804 5809 5812 5815 5828 5832 5839 5840 5840 5851 5850 5851 5847 5846 5846 5852 5848 5846 5848 5846 5844 5842 5841 5838 5835 5832 5829 5825 5821 5815 5810 5805 5799 5790 5783 5775 5769 5763 5756 5749 5742 5735
5782 5787 5790 5797 5797 5807 5817 5823 5827 5829 5844 5841 5838 5834 5833 5836 5837 5836 5837 5837 5837 5836 5833 5832 5829 5826 5823 5821 5817 5813 5808 5802 5798 5792 5785 5777 5769 5762 5755 5749 5742 5735 5728 5721
5769 5775 5779 5784 5786 5790 5805 5813 5819 5825 5822 5821 5822 5824 5824 5824 5824 5825 5824 5825 5825 5825 5823 5820 5817 5813 5810 5808 5805 5800 5795 5790 5785 5779 5771 5763 5756 5749 5742 5735 5728 5721 5716 5710
5751 5761 5767 5772 5780 5789 5795 5801 5804 5805 5806 5808 5809 5810 5811 5811 5810 5811 5812 5812 5811 5811 5809 5807 5804 5800 5797 5794 5791 5787 5783 5777 5771 5765 5757 5750 5742 5734 5727 5721 5715 5709 5703 5696
5737 5746 5751 5758 5768 5772 5777 5784 5789 5793 5796 5791 5795 5794 5795 5794 5796 5797 5798 5798 5798 5797 5796 5793 5790 5786 5782 5780 5777 5774 5769 5763 5758 5750 5742 5735 5727 5719 5713 5706 5700 5694 5687 5680
5721 5727 5738 5743 5750 5758 5762 5769 5776 5780 5778 5777 5777 5778 5778 5780 5781 5783 5784 5784 5784 5782 5781 5777 5775 5772 5769 5766 5761 5758 5754 5749 5742 5735 5727 5720 5713 5706 5699 5692 5685 5679 5669 5664
5699 5713 5718 5730 5739 5744 5749 5753 5756 5758 5760 5761 5761 5763 5765 5766 5767 5768 5768 5769 5769 5768 5766 5764 5762 5758 5755 5752 5747 5743 5738 5732 5725 5719 5711 5704 5697 5690 5684 5677 5668 5659 5656 5648